Location: Bois de la Silve
(44.4667°N, 6.7833°E)
Time: 04:40:48
(UTC+00:00)

Cosmos 1378 Rocket - Pass Details

Date: 14 July 2020
Orbit: 602 x 626 km, 82.5° (Epoch: 06 August)

Event Time Altitude Azimuth Distance (km) Brightness Sun altitude
Rises 02:16:52 0° 352° (N) 2,899 7.7 -14.7°
Reaches altitude 10° 02:19:06 10° 354° (N) 1,993 6.8 -14.5°
Maximum altitude 02:23:31 78° 82° (E) 640 3.7 -14.0°
Drops below altitude 10° 02:27:56 10° 168° (SSE) 1,989 5.8 -13.5°
Enters shadow 02:28:29 - 169° (SSE) 2,214 6.0 -13.4°
